Preview of NWS' New Version of Forecast
This preview is not operational and should not be used for support decisions.

Regional Weather Roundup (RWR)

Issued by National Weather Service (NWS)

                            
000
ASUS45 KABQ 220210
RWRNM 
NEW MEXICO REGIONAL WEATHER ROUNDUP
NATIONAL WEATHER SERVICE ALBUQUERQUE NM
800 PM MDT SUN APR 21 2019

NOTE: "FAIR" MEANS FEW OR NO CLOUDS BELOW 12,000 FEET AGL WITH NO
       SIGNIFICANT WEATHER OR OBSTRUCTIONS TO VISION.

      THIS PRODUCT IS RELEASED AS TWO VERSIONS.  ONE VERSION NEAR
      THE TOP OF THE HOUR CONTAINING PRELIMINARY DATA FROM ALBUQUERQUE
      AND OTHER STATIONS.  A FINAL VERSION WITH ADDITIONAL DATA IS 
      ISSUED ABOUT 10 MINUTES AFTER THE HOUR.
 
NMZ501-503-504-510>518-220300-
NORTHWEST PLATEAU/NORTHCENTRAL MOUNTAINS
  
CITY           SKY/WX    TMP DP  RH WIND       PRES   REMARKS
FARMINGTON     FAIR      67  16  14 SW10      29.87S                  
LOS ALAMOS       N/A     61  18  18 SW5       30.03R                  
SANTA FE       FAIR      65  19  17 CALM      29.96R                  
TAOS           FAIR      53  17  24 NW7       30.04R                  
ANGEL FIRE       N/A     47  20  35 SW6       30.10R                  

$$
NMZ402-403-502-505>509-220300-
WESTCENTRAL MOUNTAINS/SOUTHWEST MOUNTAINS
  
CITY           SKY/WX    TMP DP  RH WIND       PRES   REMARKS
GALLUP         FAIR      62  14  15 SW14G25   29.98R                  
GRANTS         FAIR      61  15  16 W8        30.01R                  
SILVER CITY    FAIR      69  20  15 W12       29.98R                  

$$
NMZ407-409-411-412-220300-
SOUTHERN DESERTS
  
CITY           SKY/WX    TMP DP  RH WIND       PRES   REMARKS
DEMING         FAIR      77  21  12 SW13      29.91R                  
LAS CRUCES     FAIR      77  22  12 SW10      29.93R                  
HOLLOMAN AFB   FAIR      75  24  15 SW6       29.92R                  
ALAMOGORDO     FAIR      73  25  16 SW5       29.92R                  
T OR C         FAIR      76  17  11 SW8       29.91R                  

$$
NMZ519>523-220300-
CENTRAL VALLEYS/CENTRAL HIGHLANDS
  
CITY           SKY/WX    TMP DP  RH WIND       PRES   REMARKS
ALBUQUERQUE    FAIR      71  23  16 E7        29.90R                  
DOUBLE EAGLE   MOCLDY    64  30  27 SW3       29.94R                  
MORIARTY ARPT  FAIR      63  22  20 N3        29.98R                  
CLINES CORNERS FAIR      58  19  22 NW6       30.02R                  
BELEN          FAIR      70  25  18 S10       29.90R                  
SOCORRO        FAIR      74  15  10 W13G20    29.89R                  

$$
NMZ524>526-539-540-220300-
SOUTHCENTRAL MOUNTAINS
  
CITY           SKY/WX    TMP DP  RH WIND       PRES   REMARKS
RUIDOSO        FAIR      63  16  16 SW10G23   30.06R                  

$$
NMZ527>531-220300-
NORTHEAST HIGHLANDS/NORTHEAST PLAINS
  
CITY           SKY/WX    TMP DP  RH WIND       PRES   REMARKS
LAS VEGAS      FAIR      57  21  24 SW7       30.01R                  
RATON          FAIR      57  17  21 W12       29.94R                  
CLAYTON        FAIR      64  23  21 W7        29.86R                  

$$
NMZ532>537-220300-
EASTCENTRAL PLAINS
  
CITY           SKY/WX    TMP DP  RH WIND       PRES   REMARKS
SANTA ROSA     FAIR      70  20  15 W3        29.88R                  
TUCUMCARI      FAIR      69  25  19 W8        29.83R                  
CANNON AFB     FAIR      73  24  16 W5        29.88R                  
CLOVIS AIRPORT FAIR      65  29  25 SW6       29.88R                  

$$
NMZ028-029-538-220300-
SOUTHEAST PLAINS
  
CITY           SKY/WX    TMP DP  RH WIND       PRES   REMARKS
ROSWELL        FAIR      79  20  11 W10       29.83R                  
ARTESIA        FAIR      79  25  13 SW13      29.87R                  
CARLSBAD       FAIR      80  27  14 SW13      29.85R                  
HOBBS          FAIR      75  25  15 SW13      29.89R                  


$$